DW4465 Weather Reports


time (UTC)temp
C
wind
direction
speed
KPH
gust
KPH
rain 1hr
cm
rain 24hr
cm
rain mn
cm
humidity
%
barometer
mb
20260509114537 15 0 0.0 1.6 0.00 0.00 0.00 86 1013.6
20260509113054 15 0 0.0 8.0 0.00 0.00 0.00 86 1013.4
20260509111542 15 0 0.0 3.2 0.00 0.00 0.00 86 1013.5
20260509110040 15 198 0.0 1.6 0.00 0.00 0.00 86 1013.5
20260509104547 15 0 0.0 6.4 0.00 0.00 0.00 86 1013.5
20260509103044 15 0 0.0 1.6 0.00 0.00 0.00 85 1013.6
20260509101559 15 0 0.0 3.2 0.00 0.00 0.00 85 1013.7
20260509100044 15 110 0.0 4.8 0.00 0.00 0.00 85 1013.8
20260509094542 16 0 0.0 6.4 0.00 0.00 0.00 85 1013.9
20260509093038 16 0 1.6 6.4 0.00 0.00 0.00 85 1014.0
20260509091537 16 154 0.0 8.0 0.00 0.00 0.00 85 1014.0
20260509090058 16 131 1.6 6.4 0.00 0.00 0.00 85 1014.0
20260509084546 16 0 1.6 6.4 0.00 0.00 0.00 84 1014.1
20260509083052 16 169 3.2 8.0 0.00 0.00 0.00 84 1014.3
20260509081539 16 167 1.6 8.0 0.00 0.00 0.00 84 1014.3
20260509080042 16 159 1.6 6.4 0.00 0.00 0.00 84 1014.4
20260509074546 16 191 4.8 9.7 0.00 0.00 0.00 84 1014.6
20260509073042 16 199 1.6 6.4 0.00 0.00 0.00 84 1014.6
20260509071543 16 134 0.0 4.8 0.00 0.00 0.00 84 1014.4
20260509070042 16 0 0.0 6.4 0.00 0.00 0.00 84 1014.4
20260509064535 16 0 0.0 4.8 0.00 0.00 0.00 84 1014.6
20260509063044 16 0 0.0 1.6 0.00 0.00 0.00 84 1014.7
20260509061544 16 0 0.0 3.2 0.00 0.00 0.00 84 1014.8
20260509060048 16 0 0.0 4.8 0.00 0.00 0.00 84 1014.9
20260509054540 16 0 0.0 3.2 0.00 0.00 0.00 84 1014.7
20260509053101 16 0 0.0 3.2 0.00 0.00 0.00 84 1014.9
20260509051550 16 0 0.0 3.2 0.00 0.00 0.00 83 1014.8
20260509050043 16 0 0.0 1.6 0.00 0.00 0.00 83 1014.7
20260509044609 16 0 0.0 3.2 0.00 0.00 0.00 82 1014.7
20260509043043 16 0 0.0 3.2 0.00 0.00 0.00 82 1014.6
20260509041538 16 0 0.0 3.2 0.00 0.00 0.00 82 1014.5
20260509040046 16 0 0.0 4.8 0.00 0.00 0.00 81 1014.2
20260509034542 16 355 0.0 4.8 0.00 0.00 0.00 80 1014.0
20260509033039 16 0 0.0 4.8 0.00 0.00 0.00 80 1013.9
20260509031553 17 329 1.6 8.0 0.00 0.00 0.00 79 1013.9
20260509030057 17 300 1.6 6.4 0.00 0.00 0.00 78 1013.6
20260509024542 17 318 1.6 8.0 0.00 0.00 0.00 77 1013.5
20260509023038 18 302 3.2 8.0 0.00 0.00 0.00 76 1013.4
20260509021547 18 0 1.6 8.0 0.00 0.00 0.00 74 1013.3
20260509020045 19 317 1.6 6.4 0.00 0.00 0.00 73 1013.1
20260509014540 20 285 1.6 9.7 0.00 0.00 0.00 70 1013.1
20260509013048 21 302 1.6 11.3 0.00 0.00 0.00 70 1013.1
20260509011556 21 324 3.2 8.0 0.00 0.00 0.00 69 1013.1
20260509010051 21 267 1.6 6.4 0.00 0.00 0.00 68 1012.9
20260509004552 21 144 3.2 14.5 0.00 0.00 0.00 68 1013.0
20260509003053 21 189 6.4 12.9 0.00 0.00 0.00 68 1012.9
20260509001538 22 194 6.4 12.9 0.00 0.00 0.00 68 1013.0
20260509000037 22 202 4.8 16.1 0.00 0.00 0.00 67 1013.0
20260508234543 22 169 6.4 16.1 0.00 0.00 0.00 67 1013.1
20260508233042 22 198 8.0 14.5 0.00 0.00 0.00 66 1013.2
20260508231548 22 166 6.4 16.1 0.00 0.00 0.00 66 1013.4
20260508230044 22 210 6.4 16.1 0.00 0.00 0.00 65 1013.6
20260508224558 22 206 4.8 16.1 0.00 0.00 0.00 65 1013.8
20260508223051 22 162 3.2 16.1 0.00 0.00 0.00 64 1013.9
20260508221542 22 209 6.4 17.7 0.00 0.00 0.00 67 1014.3
20260508220051 22 148 8.0 16.1 0.00 0.00 0.00 66 1014.5
20260508214547 22 189 4.8 14.5 0.00 0.00 0.00 67 1014.6
20260508213045 22 155 6.4 14.5 0.00 0.00 0.00 67 1014.6
20260508211550 22 196 3.2 11.3 0.00 0.00 0.00 67 1014.9
20260508210046 22 215 4.8 11.3 0.00 0.00 0.00 65 1015.0
20260508204540 22 94 4.8 16.1 0.00 0.00 0.00 66 1015.1
20260508203042 21 201 4.8 12.9 0.00 0.00 0.00 69 1015.3
20260508201537 21 206 3.2 12.9 0.00 0.00 0.00 69 1015.5
20260508200037 21 205 4.8 14.5 0.00 0.00 0.00 70 1015.5
20260508194542 21 219 6.4 16.1 0.00 0.00 0.00 70 1015.5
20260508193040 20 130 3.2 12.9 0.00 0.00 0.00 71 1015.7
20260508191548 20 229 1.6 6.4 0.00 0.00 0.00 75 1015.9
20260508190037 19 0 1.6 8.0 0.00 0.00 0.00 76 1016.0
20260508184548 18 150 3.2 9.7 0.00 0.00 0.00 77 1016.2
20260508183046 18 255 0.0 8.0 0.00 0.00 0.00 78 1016.4
20260508181555 18 0 1.6 9.7 0.00 0.00 0.00 79 1016.4
20260508180039 18 213 1.6 8.0 0.00 0.00 0.00 79 1016.5
20260508174554 18 0 0.0 4.8 0.00 0.00 0.00 80 1016.6
20260508173037 17 0 1.6 3.2 0.00 0.00 0.00 80 1016.7
20260508171541 17 144 0.0 6.4 0.00 0.00 0.00 81 1016.7
20260508170039 17 149 1.6 6.4 0.00 0.00 0.00 82 1016.6
20260508164539 17 198 1.6 6.4 0.00 0.00 0.00 82 1016.7
20260508163048 17 155 0.0 3.2 0.00 0.00 0.00 83 1016.6
20260508161552 17 0 0.0 6.4 0.00 0.00 0.00 83 1016.5
20260508160048 16 0 0.0 6.4 0.00 0.00 0.00 84 1016.6
20260508154552 16 78 0.0 6.4 0.00 0.00 0.00 84 1016.4
20260508153047 16 98 0.0 6.4 0.00 0.00 0.00 84 1016.6
20260508151551 16 136 0.0 4.8 0.00 0.00 0.00 84 1016.6
20260508150058 16 119 0.0 4.8 0.00 0.00 0.00 85 1016.7
20260508144542 16 0 0.0 6.4 0.00 0.00 0.00 85 1016.7
20260508143053 16 0 0.0 4.8 0.00 0.00 0.00 85 1016.6
20260508141549 16 167 1.6 6.4 0.00 0.00 0.00 85 1016.5
20260508134545 16 163 0.0 4.8 0.00 0.00 0.00 85 1016.3
20260508133104 16 184 0.0 3.2 0.00 0.00 0.00 85 1016.3
20260508131548 16 167 1.6 8.0 0.00 0.00 0.00 85 1016.1
20260508130039 16 164 0.0 8.0 0.00 0.00 0.00 85 1016.0
20260508124548 16 136 0.0 3.2 0.00 0.00 0.00 85 1015.9
20260508123044 16 192 1.6 6.4 0.00 0.00 0.00 85 1016.0
20260508121543 16 126 0.0 6.4 0.00 0.00 0.00 85 1015.8
20260508120046 16 0 0.0 3.2 0.00 0.00 0.00 85 1015.7